Plymouth, NH

6:56 PM EST on February 14, 2016 (GMT -0500)
Plymouth

Weather History for K1P1 - January, 2014

Change the Weather History Date:

Monday, January 6, 2014

  Actual Average (KLCI) Record (KLCI)
Temperature  
Mean Temperature 36 °F -  
Max Temperature 46 °F 30 °F 66 °F (2007)
Min Temperature 25 °F 13 °F -6 °F (1996)
Degree Days  
Heating Degree Days 29    
Moisture  
Dew Point 29 °F    
Average Humidity 82    
Maximum Humidity 99    
Minimum Humidity 56    
Precipitation  
Precipitation 0.69 in - - ()
Sea Level Pressure  
Sea Level Pressure 29.47 in    
Wind  
Wind Speed 5 mph (WSW)    
Max Wind Speed 18 mph    
Max Gust Speed 29 mph    
Visibility 6 miles    
Events Rain , Snow    
Averages and records for this station are not official NWS values.
T = Trace of Precipitation, MM = Missing Value Source: NWS Daily Summary

Daily Weather History Graph

Daily Weather History Graph

Search for Another Location

Airport or City:

Trip Planner

Search our weather history database for the weather conditions in past years. The results will help you decide how hot, cold, wet, or windy it might be!

Date:

Astronomy

Jan. 06, 2014 Rise Set
Actual Time 7:20 AM EST 4:25 PM EST
Civil Twilight 6:48 AM EST 4:57 PM EST
Nautical Twilight 6:12 AM EST 5:33 PM EST
Astronomical Twilight 5:37 AM EST 6:08 PM EST
Moon 10:22 AM EST (1/6) 11:09 PM EST (1/6)
Length of Visible Light 10h 09m
Length of Day
9h 04m
Waxing Crescent, 34% of the Moon is Illuminated
Jan 6
Waxing Crescent
Jan 7
First Quarter
Jan 15
Full
Jan 24
Last Quarter
Jan 30
New

Hourly Weather History & Observations

Time (EST) Temp. Windchill Dew Point Humidity Pressure Visibility Wind Dir Wind Speed Gust Speed Precip Events Conditions
12:15 AM 30.0 °F - 28.6 °F 94% 29.95 in 7.0 mi Calm Calm - N/A   Overcast
12:35 AM 30.2 °F - 29.1 °F 96% 29.93 in 2.0 mi Calm Calm - 0.01 in   Overcast
12:55 AM 30.6 °F - 29.5 °F 96% 29.91 in 2.0 mi Calm Calm - 0.03 in   Overcast
1:15 AM 31.5 °F - 30.6 °F 96% 29.89 in 1.8 mi Calm Calm - 0.01 in Snow Light Snow
1:35 AM 32.0 °F - 31.5 °F 98% 29.88 in 2.0 mi Calm Calm - 0.04 in   Overcast
1:55 AM 32.0 °F 27.5 °F 31.6 °F 99% 29.86 in 2.0 mi SE 4.6 mph - 0.06 in   Overcast
2:15 AM 32.0 °F 28.7 °F 31.8 °F 99% 29.84 in 3.0 mi SSE 3.5 mph - N/A   Overcast
2:35 AM 32.0 °F - 31.8 °F 99% 29.82 in 2.0 mi Calm Calm - 0.02 in   Overcast
2:55 AM 32.4 °F 27.9 °F 32.0 °F 99% 29.80 in 3.0 mi South 4.6 mph - 0.03 in   Overcast
3:15 AM 32.5 °F 29.3 °F 32.0 °F 98% 29.78 in 2.0 mi South 3.5 mph - 0.04 in Snow Light Snow
3:35 AM 32.7 °F - 32.0 °F 97% 29.75 in 2.5 mi Calm Calm - 0.08 in Snow Light Snow
3:55 AM 32.9 °F 29.8 °F 32.0 °F 96% 29.73 in 2.5 mi South 3.5 mph - 0.13 in Snow Light Snow
4:15 AM 32.9 °F - 32.0 °F 96% 29.69 in 3.0 mi Calm Calm - 0.04 in   Overcast
4:35 AM 33.3 °F 30.2 °F 32.4 °F 96% 29.67 in 3.0 mi SSE 3.5 mph - 0.06 in Snow Light Snow
4:55 AM 33.4 °F 30.4 °F 32.5 °F 96% 29.65 in 7.0 mi SSE 3.5 mph - 0.06 in   Overcast
5:15 AM 33.6 °F 30.6 °F 32.9 °F 97% 29.62 in 7.0 mi SE 3.5 mph - 0.01 in   Overcast
5:35 AM 33.8 °F 30.8 °F 32.9 °F 96% 29.61 in 3.0 mi SE 3.5 mph - 0.01 in   Overcast
5:55 AM 33.8 °F - 33.1 °F 97% 29.61 in 7.0 mi Calm Calm - 0.02 in   Overcast
6:15 AM 34.3 °F 31.4 °F 33.8 °F 98% 29.59 in 3.0 mi East 3.5 mph - N/A   Overcast
6:35 AM 34.0 °F 28.8 °F 33.3 °F 97% 29.58 in 3.0 mi SE 5.8 mph - N/A   Overcast
6:55 AM 34.0 °F 29.8 °F 33.3 °F 97% 29.55 in 2.5 mi SE 4.6 mph - N/A   Overcast
7:15 AM 33.4 °F 29.1 °F 32.9 °F 98% 29.54 in 3.0 mi SE 4.6 mph - N/A   Overcast
7:35 AM 33.3 °F - 32.7 °F 98% 29.52 in 2.5 mi Calm Calm - N/A   Overcast
7:55 AM 32.9 °F - 32.4 °F 98% 29.50 in 1.0 mi Calm Calm - N/A   Overcast
8:15 AM 33.8 °F - 33.3 °F 98% 29.48 in 1.0 mi Calm Calm - N/A   Overcast
8:35 AM 33.4 °F 30.4 °F 33.1 °F 99% 29.45 in 1.8 mi East 3.5 mph - 0.01 in Rain Rain
8:55 AM 34.5 °F 30.4 °F 34.2 °F 99% 29.43 in 1.0 mi SSE 4.6 mph - 0.11 in Snow Heavy Snow
9:15 AM 34.0 °F 29.8 °F 33.8 °F 99% 29.41 in 3.0 mi ESE 4.6 mph - 0.01 in Rain Rain
9:35 AM 33.3 °F - 32.9 °F 99% 29.39 in 1.2 mi Calm Calm - 0.05 in Rain Light Rain
9:55 AM 33.6 °F - 33.1 °F 98% 29.36 in 0.8 mi Calm Calm - 0.11 in Snow Light Snow
10:15 AM 33.3 °F - 33.1 °F 99% 29.36 in 1.0 mi Calm Calm - 0.03 in Rain Light Rain
10:35 AM 33.8 °F - 33.3 °F 98% 29.33 in 1.8 mi Calm Calm - 0.03 in Rain Rain
10:55 AM 34.0 °F 31.0 °F 33.8 °F 99% 29.30 in 1.2 mi East 3.5 mph - 0.07 in Rain Rain
11:15 AM 40.3 °F 38.2 °F 40.1 °F 99% 29.30 in 1.2 mi SW 3.5 mph 16.1 mph 0.04 in Rain Light Rain
11:35 AM 45.3 °F 39.7 °F 44.6 °F 97% 29.31 in 5.0 mi West 11.5 mph 18.4 mph 0.06 in Rain Light Rain
11:55 AM 46.4 °F 40.4 °F 42.1 °F 85% 29.31 in 5.0 mi West 13.8 mph 24.2 mph 0.06 in Rain Light Rain
12:15 PM 45.5 °F 41.3 °F 41.4 °F 85% 29.31 in 10.0 mi West 8.1 mph - 0.01 in Rain Light Rain
12:35 PM 43.3 °F - 40.3 °F 89% 29.29 in 10.0 mi Calm Calm - 0.01 in Rain Light Rain
12:55 PM 44.2 °F 38.0 °F 39.6 °F 84% 29.28 in 10.0 mi West 12.7 mph 19.6 mph 0.01 in Rain Light Rain
1:15 PM 45.0 °F 41.8 °F 38.5 °F 78% 29.25 in 10.0 mi WSW 5.8 mph - N/A   Mostly Cloudy
1:35 PM 44.6 °F 43.1 °F 39.2 °F 81% 29.26 in 10.0 mi West 3.5 mph - N/A   Scattered Clouds
1:55 PM 44.4 °F 42.0 °F 39.2 °F 82% 29.26 in 10.0 mi West 4.6 mph - N/A   Mostly Cloudy
2:15 PM 44.8 °F 41.0 °F 37.4 °F 75% 29.27 in 10.0 mi West 6.9 mph - N/A   Overcast
2:35 PM 43.7 °F 42.1 °F 37.4 °F 78% 29.28 in 10.0 mi WSW 3.5 mph - N/A   Overcast
2:55 PM 43.3 °F 39.2 °F 37.4 °F 80% 29.28 in 10.0 mi West 6.9 mph - N/A Rain Light Rain
3:15 PM 42.1 °F 35.2 °F 36.7 °F 81% 29.31 in 7.0 mi WNW 12.7 mph 17.3 mph N/A Rain Light Rain
3:35 PM 38.3 °F 30.5 °F 32.9 °F 81% 29.32 in 10.0 mi West 12.7 mph 17.3 mph N/A Rain Light Rain
3:55 PM 37.8 °F 30.2 °F 31.1 °F 77% 29.33 in 10.0 mi West 11.5 mph 17.3 mph N/A   Overcast
4:15 PM 37.4 °F 29.8 °F 30.0 °F 75% 29.33 in 10.0 mi West 11.5 mph 20.7 mph N/A   Overcast
4:35 PM 36.9 °F 28.7 °F 28.0 °F 70% 29.33 in 10.0 mi West 12.7 mph 20.7 mph N/A   Overcast
4:55 PM 36.5 °F 26.3 °F 25.5 °F 64% 29.33 in 10.0 mi West 18.4 mph 23.0 mph N/A   Mostly Cloudy
5:15 PM 35.6 °F 27.5 °F 24.1 °F 63% 29.35 in 10.0 mi West 11.5 mph 21.9 mph N/A   Scattered Clouds
5:35 PM 34.3 °F 26.5 °F 21.9 °F 60% 29.35 in 10.0 mi West 10.4 mph 23.0 mph N/A   Scattered Clouds
5:55 PM 33.6 °F 24.1 °F 21.2 °F 60% 29.35 in 10.0 mi West 13.8 mph 24.2 mph N/A   Scattered Clouds
6:15 PM 32.9 °F 22.8 °F 19.4 °F 58% 29.35 in 10.0 mi West 15.0 mph 26.5 mph N/A   Scattered Clouds
6:35 PM 32.2 °F 21.4 °F 18.5 °F 57% 29.35 in 10.0 mi West 16.1 mph 28.8 mph N/A   Clear
6:55 PM 32.0 °F 21.2 °F 18.1 °F 57% 29.35 in 10.0 mi West 16.1 mph 27.6 mph N/A   Scattered Clouds
7:15 PM 31.6 °F 20.7 °F 17.6 °F 56% 29.35 in 10.0 mi West 16.1 mph 25.3 mph N/A   Clear
7:35 PM 31.1 °F 20.9 °F 17.1 °F 56% 29.36 in 10.0 mi WNW 13.8 mph 20.7 mph N/A   Clear
7:55 PM 30.6 °F 19.0 °F 16.7 °F 56% 29.37 in 10.0 mi West 17.3 mph 23.0 mph N/A   Clear
8:15 PM 30.2 °F 20.2 °F 16.7 °F 57% 29.37 in 10.0 mi West 12.7 mph 23.0 mph N/A   Scattered Clouds
8:35 PM 30.2 °F 20.2 °F 16.2 °F 56% 29.38 in 10.0 mi West 12.7 mph 19.6 mph N/A   Mostly Cloudy
8:55 PM 29.8 °F 19.3 °F 16.7 °F 58% 29.38 in 10.0 mi West 13.8 mph 24.2 mph N/A   Mostly Cloudy
9:15 PM 29.3 °F 19.1 °F 16.0 °F 58% 29.39 in 10.0 mi West 12.7 mph 25.3 mph N/A   Overcast
9:35 PM 28.6 °F 18.7 °F 15.8 °F 59% 29.40 in 10.0 mi West 11.5 mph 25.3 mph N/A Snow Light Snow
9:55 PM 28.2 °F 15.9 °F 16.2 °F 61% 29.40 in 10.0 mi West 17.3 mph 26.5 mph N/A Snow Light Snow
10:15 PM 27.5 °F 16.3 °F 17.1 °F 65% 29.40 in 10.0 mi West 13.8 mph 23.0 mph N/A Snow Light Snow
10:35 PM 26.8 °F 15.4 °F 17.4 °F 68% 29.41 in 5.0 mi West 13.8 mph 23.0 mph N/A Snow Light Snow
10:55 PM 26.4 °F 17.3 °F 16.5 °F 66% 29.40 in 10.0 mi West 9.2 mph 18.4 mph N/A   Overcast
11:15 PM 26.2 °F 17.1 °F 14.7 °F 62% 29.40 in 10.0 mi West 9.2 mph 19.6 mph N/A   Overcast
11:35 PM 26.1 °F 15.0 °F 14.7 °F 62% 29.41 in 10.0 mi West 12.7 mph 19.6 mph N/A   Overcast
11:55 PM 25.7 °F 14.0 °F 14.4 °F 62% 29.41 in 10.0 mi West 13.8 mph 27.6 mph N/A   Overcast